RH
2 2 2 2 2 2 2 2 2 3 3 3 2 2 2 2 2 2 2 1 1 1 2 1 2 3 4 4 3 4 3 2 2 2 3 4 7 9 10 16 20 22 13 21 53 70 81 88 83 81 79 79 74 65 58 52 52 52 54 57 56 57 54 45 35 29 27 26 33 37 41 48 34 16 14 11 6 4 5 6 7 7 8 10 10 9 10 12
2 2 2 2 2 2 2 2 2 2 2 3 3 3 2 2 2 2 2 2 2 1 2 2 1 2 3 4 4 4 3 2 2 2 2 3 4 7 9 14 17 17 11 22 51 68 79 84 80 79 77 77 71 63 58 53 51 49 50 53 53 55 53 47 35 26 24 23 30 37 41 48 40 22 15 13 9 5 4 6 6 7 8 11 11 12 13 13
2 2 2 2 2 2 2 2 2 2 2 2 2 3 3 3 2 2 2 2 2 2 1 2 1 2 2 3 4 4 4 3 2 2 2 2 2 5 7 13 15 12 10 25 48 63 73 79 77 73 74 73 64 59 56 53 52 49 48 49 50 52 53 48 35 25 25 24 26 33 42 48 38 23 16 12 10 6 4 6 6 7 9 11 13 15 17 17
3 2 2 2 2 2 2 2 2 2 2 2 2 2 2 3 3 2 2 2 2 2 2 2 1 2 1 3 4 4 4 3 3 2 2 2 2 3 6 12 14 9 13 31 47 57 67 75 74 68 69 67 60 58 55 54 55 49 47 48 47 48 49 43 31 26 28 26 24 26 39 49 39 21 14 11 9 6 4 5 6 6 8 11 14 16 19 20
3 3 3 3 2 2 2 2 2 2 2 2 2 2 2 2 3 2 3 2 2 2 2 2 2 2 1 2 3 4 4 3 3 3 2 2 2 3 5 12 15 9 15 33 44 52 64 72 71 65 63 63 59 59 56 55 55 47 44 45 45 47 47 39 27 25 27 24 21 20 27 40 35 17 9 7 6 6 4 5 5 6 8 10 12 14 18 20
3 3 3 3 3 3 2 2 2 2 2 2 2 2 2 2 2 2 2 3 3 2 2 2 2 2 2 2 2 3 3 3 3 3 2 2 2 2 3 10 15 11 13 29 42 51 63 68 67 62 61 62 59 59 58 56 52 45 41 42 45 48 45 38 26 20 22 21 19 17 18 24 23 12 6 6 5 5 4 4 5 6 7 9 11 13 17 20
2 2 3 3 3 3 3 3 3 2 2 2 2 2 2 2 2 2 2 2 3 3 2 2 2 2 2 2 2 3 3 3 3 3 3 2 2 2 3 7 13 12 11 22 39 50 59 64 63 60 60 61 59 58 57 54 49 40 38 40 45 48 44 36 24 16 18 21 21 18 14 15 14 9 6 5 5 5 5 5 5 6 7 9 11 13 17 21
2 2 2 2 3 3 3 3 3 3 3 2 2 2 2 2 2 2 2 2 2 2 3 2 2 2 2 2 2 2 3 3 3 3 3 3 2 2 2 4 8 12 11 17 35 47 52 57 58 57 59 60 59 55 53 54 48 38 36 39 46 48 43 34 21 14 16 21 24 19 13 11 10 9 8 6 6 5 5 5 5 6 7 9 11 13 17 22
2 2 2 2 2 2 2 3 3 3 3 3 2 2 2 2 2 2 2 2 2 2 2 3 3 2 2 2 2 2 2 3 3 3 4 3 3 2 2 2 4 9 12 15 27 37 41 49 55 56 59 60 57 52 51 53 48 39 34 36 44 46 41 34 21 13 15 19 23 20 13 11 10 9 9 8 8 7 7 6 5 5 7 9 12 12 15 20
2 2 2 2 2 2 2 2 2 3 3 3 3 3 3 2 2 2 2 2 2 2 2 2 3 3 2 2 2 2 2 2 3 3 4 4 3 2 2 2 2 5 12 14 19 27 34 47 55 55 57 57 53 48 48 51 46 38 33 31 36 40 39 34 20 11 13 17 22 21 16 12 11 11 9 8 8 7 7 6 5 5 6 9 11 12 13 17
3 2 2 2 2 2 2 2 2 2 2 2 2 3 3 3 3 2 2 2 2 2 2 2 2 3 3 2 2 2 2 2 3 3 4 4 4 3 2 2 2 3 10 15 17 22 33 45 52 53 53 52 49 46 45 49 47 39 33 29 31 34 36 30 17 12 14 17 22 25 22 17 13 11 9 9 9 7 6 6 5 4 4 7 10 12 11 13
3 3 3 3 2 2 2 2 2 2 2 2 2 2 2 3 3 3 3 2 2 2 2 2 2 2 3 3 3 2 2 2 2 3 3 4 4 3 2 2 2 2 7 13 15 18 26 36 44 49 48 46 48 46 44 46 49 42 33 31 31 31 31 24 15 16 20 20 22 26 27 26 23 17 11 9 9 7 7 7 6 5 5 5 8 10 11 10
4 4 3 3 3 3 3 2 2 2 2 2 2 2 2 2 3 3 3 3 2 2 2 2 2 2 2 3 3 2 2 2 2 2 3 4 4 4 3 2 2 2 4 9 12 13 16 23 35 42 41 43 46 43 42 44 46 43 36 32 30 28 26 21 19 23 26 23 24 27 27 28 28 26 20 14 12 9 8 10 10 8 7 5 5 7 9 9
5 4 4 4 3 3 3 3 3 2 2 2 2 2 2 2 2 2 3 3 3 3 2 2 2 2 2 2 3 2 2 2 2 2 2 3 4 4 3 2 2 2 3 6 8 9 10 14 23 33 37 41 39 37 40 43 44 43 40 33 26 25 25 22 24 31 35 31 29 27 25 25 26 28 29 23 19 16 12 14 15 12 10 8 7 6 7 7
6 6 5 4 4 4 4 3 3 3 3 2 2 2 2 2 2 2 2 2 3 3 3 2 2 2 2 2 2 3 2 2 2 2 2 3 3 4 4 3 2 2 2 4 6 8 11 12 17 29 37 37 32 32 37 41 44 41 37 32 25 24 24 25 30 38 42 37 29 28 29 28 26 27 31 30 29 26 20 17 16 13 12 11 10 8 6 6
6 7 6 6 5 4 4 4 4 3 3 3 3 3 2 2 2 2 2 2 2 2 3 3 2 2 2 2 2 3 3 3 2 2 2 2 3 4 4 3 3 2 2 2 5 8 10 12 17 26 33 33 26 26 32 38 41 38 33 32 32 26 22 28 39 44 47 40 34 38 38 32 29 30 32 31 32 31 28 24 17 11 10 11 11 10 9 7
5 6 7 7 6 5 5 4 4 4 4 4 3 3 3 3 2 2 2 2 2 2 2 3 3 3 2 2 2 2 3 3 3 2 2 2 2 3 4 4 3 2 2 2 3 5 9 12 15 20 26 29 23 19 25 29 30 31 30 33 36 31 28 39 49 50 51 48 45 48 46 41 42 45 44 37 32 30 30 29 22 14 12 10 9 10 10 10
6 6 6 7 7 6 6 5 5 4 4 4 4 4 3 3 3 3 2 2 2 2 2 2 3 3 3 2 2 2 2 3 3 3 2 2 2 3 3 4 4 3 3 2 2 4 7 10 11 16 21 22 16 12 16 22 26 29 29 34 34 29 32 46 54 55 57 56 53 54 53 52 52 53 52 46 39 34 30 29 25 19 16 14 12 11 9 10
6 6 6 6 7 7 7 6 6 5 5 5 5 4 4 4 3 3 3 3 2 2 2 2 2 3 4 3 2 2 2 3 4 3 3 2 2 2 3 4 4 3 3 2 3 3 4 6 8 9 11 12 9 8 13 24 31 31 34 39 41 37 37 45 53 58 60 58 55 57 57 55 52 49 49 50 51 45 33 29 29 26 21 18 16 14 11 10
7 7 7 7 6 6 7 7 7 6 6 5 5 5 5 4 4 3 3 3 3 2 2 2 2 2 3 3 3 2 2 2 3 4 3 2 2 2 2 3 3 3 3 3 3 3 3 4 4 4 6 10 11 11 14 23 30 34 39 45 54 56 49 51 60 61 60 59 56 58 58 56 53 50 46 47 52 53 40 30 29 30 27 23 20 16 14 12
9 8 8 8 7 7 7 7 7 7 6 6 6 5 5 5 5 4 4 3 3 3 2 2 2 2 3 3 3 3 3 2 3 4 3 3 2 2 2 2 3 3 3 3 3 3 3 3 2 4 11 20 23 17 13 18 27 34 40 50 62 63 56 59 68 67 65 63 59 58 58 57 55 51 48 45 46 50 48 41 37 34 31 29 26 21 16 13
11 10 9 8 8 7 7 7 7 7 7 7 6 6 5 5 5 5 4 4 3 3 3 2 2 2 2 2 2 3 3 3 2 3 4 3 3 2 2 2 3 3 3 3 3 3 3 3 3 6 14 26 30 23 14 15 23 31 41 56 64 62 59 61 67 70 69 66 64 61 57 57 55 50 49 47 44 45 47 50 51 47 40 33 29 25 20 17
14 12 11 10 9 8 7 7 7 7 7 7 7 7 6 6 5 5 5 4 3 3 3 3 2 2 2 2 2 2 3 3 3 3 3 4 4 3 2 2 3 3 3 3 3 3 3 3 4 7 13 21 26 22 13 12 20 28 42 59 62 58 58 59 64 69 67 67 69 66 60 58 57 55 56 53 47 44 43 45 51 54 49 42 39 35 30 26
15 14 13 11 10 9 8 8 7 7 7 7 7 7 6 6 6 5 5 5 4 3 3 3 3 2 2 2 2 2 3 4 3 2 3 4 4 3 3 3 2 3 3 3 3 3 3 3 5 8 12 17 22 20 12 10 17 25 39 57 60 55 57 61 66 68 66 69 71 68 63 59 61 67 70 65 54 49 45 41 44 51 53 52 53 50 44 41
16 16 15 13 12 11 9 9 8 7 7 8 7 7 7 6 6 6 5 5 4 4 4 4 3 3 3 2 2 2 2 4 4 3 3 3 5 4 3 3 3 3 3 3 3 3 3 3 4 8 11 15 18 16 11 9 15 21 32 51 59 59 62 64 65 66 67 69 72 71 63 59 64 69 74 72 63 57 50 43 42 45 50 55 58 57 55 55
17 17 17 15 14 13 11 10 9 8 8 8 8 8 7 7 7 6 5 6 5 4 4 4 4 4 4 3 3 2 2 4 5 4 3 3 4 5 4 4 3 3 3 3 3 3 3 3 4 7 11 15 14 13 12 10 14 18 24 45 61 63 64 64 64 68 67 67 75 73 60 57 61 64 70 71 64 59 51 46 46 44 47 52 55 58 59 62
18 18 18 17 16 15 13 12 10 10 9 9 8 8 8 8 7 6 6 5 5 5 6 5 5 6 5 4 4 4 3 4 4 4 3 3 4 5 5 4 3 3 3 3 3 3 3 3 4 6 9 13 12 10 10 9 13 16 21 42 62 63 61 61 64 70 69 70 77 71 58 55 57 59 64 64 59 54 48 47 49 49 50 52 53 56 57 58
18 18 19 19 18 17 16 14 12 11 11 10 10 9 9 9 8 7 7 6 6 8 8 7 7 6 6 5 4 4 4 5 5 5 4 3 3 4 5 5 5 4 3 3 3 3 3 3 3 5 7 9 8 9 12 12 12 16 22 40 60 66 64 64 67 71 73 75 75 68 59 55 52 54 59 60 57 51 48 49 53 55 55 55 55 56 55 54
20 19 19 20 19 18 18 16 13 13 12 12 12 11 10 10 9 8 7 6 6 8 7 6 6 6 6 6 5 4 4 5 6 5 5 4 3 4 5 6 5 5 4 4 3 3 3 3 3 6 7 7 8 12 15 16 15 17 23 34 53 66 67 67 69 72 76 75 66 62 62 56 48 49 55 58 54 49 51 56 60 60 55 53 55 54 54 53
24 21 19 20 20 19 19 18 16 15 14 13 13 12 12 11 10 9 8 7 7 8 7 7 6 6 6 6 5 4 4 4 5 5 5 5 4 3 5 6 6 5 5 4 4 4 3 3 3 6 7 8 16 20 19 21 22 22 25 30 45 61 67 69 68 70 76 70 57 57 64 60 47 43 50 54 50 50 56 59 61 60 56 57 57 53 54 55
27 25 22 21 22 21 20 19 18 18 17 15 14 14 13 12 11 9 8 8 9 9 8 7 7 6 6 7 6 5 4 4 5 5 6 6 5 4 4 6 6 6 5 4 4 3 3 4 3 5 7 8 20 28 27 28 27 25 28 30 37 52 62 67 67 69 72 63 52 55 61 58 44 37 44 49 45 48 54 55 52 51 58 66 60 52 52 52
29 28 26 23 22 23 22 21 20 19 19 18 16 15 14 13 11 9 8 9 9 8 8 7 7 6 6 6 6 5 4 4 5 5 6 6 6 4 4 5 6 6 5 4 4 4 3 4 3 5 7 9 18 27 29 32 31 27 29 30 34 44 54 61 63 65 67 58 49 52 58 51 35 30 40 45 43 44 47 48 45 43 54 65 58 53 53 47
31 30 29 27 24 24 24 23 22 20 20 20 19 17 16 14 10 9 10 11 10 9 8 7 6 6 6 6 5 5 4 4 4 5 5 7 7 6 4 5 6 7 7 5 4 4 3 4 3 4 6 8 15 21 22 25 26 24 26 30 33 37 44 54 60 60 60 53 45 52 58 42 23 24 36 42 42 42 41 43 43 38 45 57 55 53 52 46
33 31 31 30 27 26 26 25 24 23 21 21 21 19 16 13 10 10 13 13 11 9 8 7 7 6 6 6 5 5 4 4 4 5 5 6 7 7 5 5 6 7 7 6 5 4 4 4 3 4 5 6 11 16 17 21 26 24 22 28 34 34 35 43 51 53 53 49 44 52 53 28 14 26 37 39 41 42 39 40 43 37 34 42 43 39 39 43
36 34 33 32 30 29 28 27 26 26 24 22 22 20 16 13 12 13 15 15 13 10 8 8 7 6 6 6 5 5 5 4 4 5 5 5 7 8 7 5 5 7 7 7 6 4 4 4 3 4 5 6 10 15 18 29 40 37 32 34 35 33 32 36 45 48 51 52 46 47 42 18 11 28 37 38 41 41 39 38 41 38 31 33 32 27 31 42
40 39 36 35 34 33 32 30 29 29 27 25 23 19 15 15 15 16 17 16 15 11 9 8 7 6 6 5 5 5 4 4 4 5 5 5 7 9 9 7 6 7 8 7 7 5 4 4 4 4 5 6 11 16 21 30 38 41 41 36 32 36 37 37 43 46 53 59 48 40 36 19 13 25 31 34 38 38 36 33 36 39 36 37 35 28 33 42
45 44 42 40 38 36 36 35 33 32 30 28 24 18 18 19 18 18 19 18 16 13 10 9 8 7 6 5 5 5 5 4 4 5 5 5 6 8 10 9 7 7 8 8 8 6 5 4 4 5 5 6 10 16 23 29 34 41 38 28 33 48 47 40 44 47 52 57 46 38 36 24 15 19 26 32 33 34 35 33 35 37 36 38 36 34 39 44
49 49 47 45 43 41 39 38 37 36 34 31 25 21 21 21 21 22 21 20 18 15 12 10 9 7 6 6 6 5 5 4 4 5 5 5 5 7 10 10 8 8 10 10 10 9 6 5 5 5 5 6 9 15 22 26 31 40 39 33 45 58 49 39 41 44 47 50 44 40 37 25 15 17 27 35 33 32 36 36 36 36 33 34 36 40 46 47
51 53 52 50 49 47 44 42 40 39 37 33 28 26 24 24 26 26 24 23 20 17 15 12 9 8 7 6 6 6 5 5 5 5 5 6 6 7 11 13 9 9 12 12 11 10 8 6 5 5 5 6 8 12 18 21 25 33 42 49 59 62 51 40 34 34 39 42 41 40 32 18 12 16 27 35 34 32 35 36 37 35 29 28 35 45 52 52
52 54 56 54 53 52 49 46 43 42 39 35 33 32 29 29 30 30 28 25 22 20 17 14 10 8 7 6 6 6 6 5 5 5 5 6 8 10 14 15 12 12 16 17 15 14 12 9 6 5 6 6 7 7 10 17 23 27 38 51 59 59 54 45 37 34 37 39 36 33 25 12 11 19 27 34 36 33 33 36 37 34 29 28 39 51 53 52
53 56 58 57 56 56 54 51 47 44 42 39 37 36 34 33 32 32 31 27 24 22 19 15 12 9 7 6 6 6 6 6 5 5 5 5 8 15 19 18 17 18 20 20 19 16 14 12 10 8 6 5 6 5 6 16 27 30 31 39 47 49 45 43 41 35 35 39 36 33 27 15 12 21 29 35 41 39 38 40 39 38 36 36 44 54 51 48
58 60 61 60 60 60 57 55 52 48 45 42 40 40 38 36 35 35 34 30 26 24 21 18 15 11 8 6 6 6 6 6 5 5 5 5 9 20 25 21 19 20 18 16 17 17 17 17 16 13 8 4 5 6 6 11 25 36 37 34 40 45 40 37 37 30 28 32 34 36 36 23 14 19 28 35 41 46 46 44 41 39 38 36 39 46 47 45
63 67 66 64 65 65 61 58 56 52 48 45 44 43 41 39 37 37 36 33 29 26 23 20 17 13 10 7 6 7 6 6 6 5 5 5 10 24 32 28 22 19 18 16 15 16 19 19 17 14 9 7 6 6 7 7 13 28 37 33 36 42 39 35 33 32 32 32 32 37 38 26 16 19 26 33 42 49 48 44 43 41 39 37 35 38 42 44
69 73 73 70 69 69 66 62 59 55 52 48 45 43 43 41 39 39 39 35 31 28 24 21 18 14 10 7 6 7 7 7 6 6 6 6 13 29 39 37 30 25 24 24 22 22 21 17 15 17 14 11 10 7 7 6 5 11 20 23 25 31 37 40 39 40 42 38 36 39 37 27 18 19 27 37 48 53 49 46 45 43 41 39 34 35 41 45
74 75 76 73 72 72 69 66 63 60 56 52 48 46 47 46 43 42 42 37 33 29 26 22 19 15 11 8 7 7 7 7 7 8 7 8 21 41 49 44 39 38 35 32 32 32 27 19 17 18 15 11 10 7 5 5 5 5 7 11 16 22 30 36 40 44 42 36 31 32 31 23 15 18 29 43 56 57 50 47 44 40 40 39 35 38 43 47
75 75 74 73 73 73 72 69 66 64 60 56 53 51 51 51 49 48 45 40 35 31 27 23 19 16 12 8 7 7 7 7 7 8 7 10 28 54 63 53 48 51 48 43 41 38 32 25 21 17 14 11 9 7 6 5 6 6 4 5 8 12 18 22 27 31 29 26 21 17 17 17 13 16 26 40 53 56 51 46 40 38 40 37 35 38 44 47
67 67 69 72 72 71 72 71 69 67 64 60 57 55 55 55 54 52 48 42 36 31 28 24 20 17 13 9 7 7 8 9 8 8 9 12 28 57 70 64 60 60 58 54 50 45 38 31 25 19 14 13 11 10 11 10 10 9 7 6 5 5 7 10 12 13 14 18 16 7 9 13 12 15 24 33 43 51 53 49 42 39 40 38 35 37 41 44
54 57 63 71 72 70 71 72 71 69 66 64 61 60 60 60 58 55 50 44 37 32 29 25 20 17 13 10 9 7 8 10 8 9 12 16 35 66 80 77 73 69 63 59 54 52 48 39 31 27 21 16 14 14 14 14 14 13 12 10 7 5 4 5 6 6 8 12 10 5 7 10 9 15 25 30 35 43 50 49 42 39 40 40 39 36 37 42
43 49 58 69 75 76 74 73 73 72 70 68 65 65 66 64 61 57 51 45 39 32 30 26 20 16 12 10 9 8 8 9 8 10 15 18 38 73 89 87 83 77 70 64 58 56 58 52 43 37 29 23 21 20 20 18 15 15 16 15 12 8 5 5 5 5 5 7 7 7 9 9 9 16 24 31 38 43 47 45 40 39 40 39 39 38 39 44
35 41 50 62 74 82 82 78 76 75 75 72 69 69 70 67 63 58 51 45 38 31 27 24 19 17 13 11 10 8 8 9 8 11 18 20 31 61 86 93 90 85 79 74 65 58 60 62 56 46 38 30 26 26 26 23 20 17 16 17 16 12 8 6 6 5 6 7 7 9 11 9 9 16 24 33 44 47 42 38 37 40 41 39 40 42 44 46
30 34 41 50 65 81 88 85 81 78 77 76 72 71 70 66 62 58 50 42 35 28 25 22 19 17 15 12 11 9 9 10 9 12 21 23 25 43 75 93 93 89 87 81 71 61 59 63 62 56 48 39 33 33 32 30 30 26 19 17 19 16 11 8 7 7 7 8 9 10 11 9 9 16 22 29 41 46 39 35 37 40 42 43 43 44 45 47
31 32 34 37 49 69 84 89 87 82 77 77 75 73 68 62 58 55 47 39 31 27 24 22 19 18 16 15 13 11 10 10 12 17 23 26 26 32 57 86 95 92 87 79 72 68 62 62 66 63 53 44 41 39 36 38 42 32 17 14 16 15 13 9 8 9 8 8 11 10 8 9 11 16 19 22 34 41 37 34 39 41 42 45 46 45 45 46
Wind_Speed
14 15 16 17 18 20 21 22 23 24 25 25 25 24 24 23 22 21 19 18 16 13 10 10 10 9 7 4 4 3 3 5 8 11 15 15 11 10 11 11 13 16 18 21 21 19 18 17 16 16 13 11 9 7 7 7 10 12 14 14 13 12 10 8 7 7 7 6 8 8 8 7 6 7 10 11 12 14 15 14 13 14 15 13 10 10 11 9
16 15 15 16 16 17 18 19 21 22 24 25 25 25 25 25 24 23 22 20 19 16 13 11 11 11 9 7 6 5 4 6 9 13 14 10 9 11 12 12 13 16 19 22 22 20 20 18 17 15 12 11 10 8 7 7 9 11 13 14 13 11 10 7 6 6 6 6 7 8 8 6 5 6 8 9 11 12 14 14 13 14 15 14 11 11 11 9
17 17 17 17 16 16 16 17 18 19 21 23 25 25 26 26 26 25 24 23 21 19 17 14 12 12 12 10 8 7 6 8 10 11 9 7 11 15 13 12 14 17 21 23 23 22 21 20 17 14 12 12 11 9 7 7 8 9 11 13 12 10 9 6 5 6 6 6 7 8 7 5 4 5 6 9 10 11 13 13 12 12 14 14 11 11 11 9
18 18 18 18 18 18 17 17 16 17 18 20 22 24 25 26 26 26 26 25 23 22 20 17 15 13 13 13 11 9 8 10 10 9 9 10 13 16 14 13 14 18 22 24 24 23 22 21 18 14 12 12 11 9 7 7 8 9 11 12 11 9 8 5 5 6 6 5 8 8 6 4 3 4 5 8 10 10 11 12 12 12 13 13 11 11 11 9
20 20 19 19 19 19 19 18 18 18 17 18 19 20 23 24 26 26 26 26 25 24 22 20 19 16 14 14 13 12 11 11 11 9 11 12 13 15 16 15 16 18 22 24 23 23 23 22 19 15 14 13 11 9 7 8 9 10 11 11 10 10 7 4 4 6 5 5 8 8 7 5 3 5 7 8 10 9 10 11 12 11 11 12 11 11 10 9
22 22 21 21 20 20 20 19 19 19 19 18 18 18 19 21 23 25 26 26 26 25 24 23 21 19 17 16 16 15 13 13 12 10 11 14 15 15 16 17 17 18 22 24 22 23 24 23 20 16 15 15 12 10 8 10 10 9 10 10 10 9 7 5 4 4 4 5 8 9 8 6 5 7 8 9 9 9 9 10 11 11 10 11 11 11 10 9
22 22 22 22 22 22 21 21 20 20 20 20 19 18 18 19 20 22 24 25 26 26 25 24 23 22 19 17 17 17 16 15 14 12 12 14 16 17 17 19 18 18 21 23 22 23 24 23 20 18 17 16 13 11 10 10 10 9 9 10 9 9 7 5 3 3 4 6 8 9 9 8 7 8 9 9 8 8 8 9 10 11 10 10 10 10 10 10
21 21 22 22 23 23 22 22 22 22 21 21 20 19 19 19 19 19 20 22 24 25 26 25 25 24 22 20 18 18 20 18 15 15 14 13 16 18 18 19 19 18 19 23 23 23 24 23 22 21 19 17 15 13 11 10 10 8 8 10 9 8 6 5 4 4 5 5 7 8 9 9 9 9 9 9 8 7 7 7 9 11 11 10 9 10 10 10
22 21 21 21 21 22 22 22 23 23 23 22 21 20 20 21 20 19 19 19 21 23 26 25 25 25 24 22 20 20 23 20 16 17 15 14 16 17 18 20 20 19 19 23 25 25 24 24 24 23 21 19 17 15 12 11 11 8 8 9 9 8 6 5 5 5 5 5 6 8 8 9 10 10 10 9 8 8 7 7 7 9 11 10 9 9 9 9
23 22 22 21 21 21 21 22 22 23 23 23 22 21 21 21 22 21 20 19 19 21 23 25 26 25 25 25 22 23 25 22 20 19 16 16 16 16 18 20 21 20 21 23 26 25 23 24 26 25 23 22 20 18 14 12 12 9 8 9 9 8 7 5 6 7 7 6 6 8 8 9 10 10 11 9 8 8 9 8 7 8 10 10 9 8 9 9
24 24 23 23 22 22 21 21 22 22 23 23 22 21 21 22 22 22 21 20 20 20 21 23 25 26 26 25 25 27 26 23 23 22 20 19 18 18 19 20 22 22 22 24 26 26 25 27 28 26 25 24 22 20 17 15 13 11 9 8 8 9 8 6 7 8 8 7 7 8 9 9 10 10 11 10 9 8 9 9 8 7 8 9 8 8 8 9
25 25 25 25 24 24 23 23 22 23 23 23 21 20 20 21 22 23 23 22 22 22 21 21 22 25 27 26 29 31 26 24 25 26 25 22 20 19 20 22 24 24 24 25 27 28 28 28 28 28 26 24 23 21 18 16 15 13 10 9 10 10 8 7 7 8 8 8 8 9 10 11 11 10 10 10 9 8 9 10 9 8 8 8 7 7 7 8
26 26 26 26 26 26 25 25 24 24 25 24 23 21 20 21 22 23 23 23 23 23 23 21 20 22 25 28 32 32 27 26 28 29 28 25 22 21 21 23 25 26 27 27 28 28 28 28 29 29 26 24 23 21 17 16 15 14 11 11 12 11 9 9 9 8 8 8 8 9 11 11 12 11 10 10 9 8 9 10 9 9 8 7 6 6 6 7
27 27 27 27 27 27 27 26 26 26 26 26 25 23 22 22 22 22 22 23 23 23 24 23 21 20 22 29 33 31 28 29 30 31 29 27 25 23 23 25 27 28 28 28 28 26 26 27 28 28 26 25 23 20 17 16 16 15 14 13 14 13 11 11 10 9 9 9 10 10 11 11 11 11 10 10 8 7 8 8 9 8 7 7 6 5 5 6
28 28 28 28 28 28 28 28 27 28 28 27 27 25 24 24 24 23 22 23 23 24 25 24 24 21 19 27 31 29 29 31 32 31 30 29 28 26 25 26 28 29 29 29 28 27 27 27 28 28 27 25 23 20 18 16 16 17 15 12 13 15 15 14 12 11 10 10 11 11 11 11 11 11 11 10 8 7 6 6 7 7 7 7 7 6 5 5
29 29 29 29 29 29 29 29 28 29 29 28 28 27 26 25 25 25 24 23 23 23 24 24 25 23 21 24 26 26 30 33 34 33 32 32 30 28 28 28 29 30 31 30 29 29 29 28 29 29 28 26 23 20 18 18 18 17 14 12 13 15 17 16 14 12 11 11 11 11 11 11 12 12 10 9 8 7 6 4 4 6 7 7 7 7 6 6
29 29 30 30 29 29 29 29 29 29 30 29 29 29 27 27 26 26 26 25 24 23 24 24 25 25 24 25 24 24 30 34 35 35 34 34 33 31 30 30 29 30 31 31 30 30 30 31 30 30 29 28 24 20 18 17 17 15 14 15 15 16 18 18 15 13 13 12 11 10 10 11 12 11 10 8 7 6 6 4 3 4 7 8 8 8 8 7
30 30 30 31 31 30 30 30 30 30 30 30 30 30 29 28 28 27 27 27 26 25 24 24 25 25 26 26 25 23 28 34 36 36 36 36 35 34 33 32 31 31 31 31 30 29 30 31 32 32 31 29 23 16 14 14 13 12 14 16 17 18 20 19 17 15 15 13 12 11 10 10 9 8 8 8 7 5 5 4 4 3 5 7 8 9 9 8
31 31 31 31 32 32 31 30 30 30 31 31 31 31 30 30 29 29 28 28 28 27 26 25 24 25 26 28 28 24 25 32 36 37 38 38 37 36 36 34 33 32 32 31 30 29 29 31 32 31 29 26 19 11 11 13 14 13 14 15 16 18 20 19 18 17 16 15 14 13 12 11 8 7 6 7 7 5 5 5 5 4 4 6 7 8 9 8
32 32 32 32 32 33 32 31 31 31 31 32 32 32 31 30 30 30 30 29 29 28 28 27 24 24 26 29 31 27 23 28 35 37 38 40 39 38 38 37 35 34 33 31 31 30 30 30 29 28 26 24 20 14 13 15 17 17 17 19 20 20 21 20 18 17 17 16 16 15 14 12 9 7 5 5 5 5 5 5 5 4 4 4 5 6 7 8
34 33 33 33 33 33 33 33 32 32 31 32 32 33 32 31 31 31 30 30 31 30 29 28 25 23 27 30 31 29 24 25 32 36 38 40 41 40 40 39 37 36 33 32 34 33 31 28 26 27 28 27 25 21 17 17 19 19 20 24 26 24 22 21 20 19 19 18 17 15 14 12 10 8 5 4 4 5 6 6 5 4 4 4 4 5 6 7
35 35 34 34 34 34 34 34 33 33 32 32 32 33 33 32 32 31 30 30 32 32 31 29 24 21 25 29 31 30 26 23 27 33 37 41 43 42 41 40 39 37 35 35 36 36 32 26 25 29 32 33 31 28 22 20 21 21 23 29 29 27 25 24 23 22 21 19 17 14 13 12 11 9 6 5 4 4 5 7 7 6 6 5 4 4 4 4
37 36 36 36 35 35 35 35 34 34 33 33 33 33 33 33 32 31 31 29 29 33 33 31 27 22 23 28 30 30 27 24 27 32 36 40 43 43 43 42 41 40 38 38 37 36 31 25 26 32 34 35 34 31 26 22 23 23 26 31 31 30 28 26 23 22 22 20 17 15 14 14 12 10 6 5 5 4 4 7 8 8 8 7 5 5 5 5
37 37 37 37 37 37 36 36 36 35 34 34 33 33 34 34 33 32 31 29 27 31 33 31 30 28 24 25 29 30 28 27 28 31 33 38 42 44 44 43 43 43 41 40 38 37 32 28 30 35 36 36 36 34 29 23 24 24 27 31 32 30 28 26 23 22 22 22 20 17 17 16 14 11 8 7 6 5 4 6 8 10 10 8 7 6 6 7
38 38 38 38 38 38 38 37 37 36 35 35 34 34 34 34 34 33 32 31 27 29 32 31 31 31 28 25 27 29 28 26 28 30 31 36 42 43 44 45 45 45 43 41 40 38 35 33 35 37 37 38 37 36 31 25 24 24 25 30 32 30 28 27 26 24 24 24 21 19 20 18 16 14 12 10 8 7 6 6 6 9 10 10 9 8 7 7
39 38 38 38 39 39 39 38 38 37 37 36 35 35 35 35 34 33 33 32 29 28 30 32 31 30 30 28 26 27 28 25 27 31 32 34 41 44 45 47 46 45 45 44 43 41 36 35 38 39 39 40 38 37 33 28 26 25 23 28 33 32 30 30 28 26 26 24 20 20 21 20 19 18 16 14 13 11 8 6 5 7 9 9 9 8 7 7
40 39 38 39 39 39 40 40 39 38 38 38 36 36 36 35 35 34 34 34 31 27 28 31 31 29 29 30 27 26 27 26 27 32 31 32 39 44 45 47 47 46 46 46 45 43 38 37 40 42 41 41 40 37 34 30 28 25 22 27 34 33 31 31 28 26 26 23 21 22 23 23 23 21 19 17 15 12 8 7 6 6 7 8 8 7 6 7
42 40 39 39 40 40 40 41 41 40 39 38 38 37 37 36 35 34 35 35 31 27 27 29 30 29 28 28 28 26 25 25 27 31 32 32 37 43 46 46 46 47 47 47 46 43 40 38 41 43 42 42 39 35 35 32 28 25 23 28 33 34 32 31 29 27 26 26 26 26 25 26 25 22 22 21 18 13 9 7 6 6 7 7 7 7 6 7
43 42 41 40 40 40 40 42 42 41 40 39 39 38 38 37 36 35 36 35 30 26 26 28 29 30 29 28 28 27 25 24 26 29 32 34 35 40 45 45 45 47 48 49 46 43 42 41 43 47 46 42 39 37 38 36 31 26 26 29 33 35 35 33 32 30 30 31 31 28 27 27 25 23 24 24 20 14 9 9 9 7 7 6 7 7 7 7
44 44 42 41 41 41 41 42 42 42 41 40 39 39 39 39 38 37 37 34 29 26 27 28 29 31 30 29 29 29 27 25 25 28 32 34 34 38 44 45 46 49 50 51 48 45 45 44 46 51 48 43 43 42 41 40 36 32 30 30 33 37 37 36 35 33 34 35 33 29 27 27 26 24 25 23 17 14 15 16 15 12 8 6 6 7 7 7
45 45 44 43 42 42 42 43 42 42 42 41 41 40 40 40 40 40 38 32 28 28 29 29 30 30 31 30 30 29 29 26 24 27 31 34 35 37 43 47 49 51 53 53 51 48 48 48 49 51 49 46 48 48 45 45 42 38 36 35 35 37 38 38 38 37 39 38 33 29 28 29 27 22 22 20 16 17 20 19 17 14 12 10 9 7 6 6
46 46 46 45 44 43 44 44 43 43 43 42 42 42 42 42 42 41 37 31 29 30 30 30 30 31 32 32 31 31 30 28 25 26 30 33 34 36 41 47 50 51 54 54 52 50 50 50 50 51 50 50 51 51 50 50 47 43 42 40 38 41 41 41 41 41 43 39 33 31 30 32 30 20 19 20 18 18 17 16 16 16 16 16 13 10 8 6
47 47 47 47 45 45 44 44 44 45 44 43 44 43 44 45 44 40 36 31 30 32 31 31 32 33 34 34 33 33 31 30 26 26 29 32 34 35 39 46 49 50 52 52 51 51 51 51 51 53 53 53 54 54 52 52 50 47 46 44 43 44 45 45 45 44 43 39 33 32 32 34 30 18 17 21 19 17 16 16 18 18 19 19 17 15 13 9
47 47 48 48 47 46 45 45 46 46 46 45 45 45 46 46 43 40 37 32 31 33 32 33 33 34 35 35 34 33 32 30 27 26 28 31 34 35 37 43 48 51 52 51 52 52 52 53 53 53 55 54 55 55 52 50 49 47 45 44 45 46 45 45 45 44 42 38 35 35 36 34 23 11 15 21 20 18 17 18 21 22 20 19 17 16 13 9
49 48 48 49 49 48 47 47 47 47 48 47 47 48 48 45 41 40 37 33 33 35 34 35 35 35 34 34 34 34 33 31 28 27 28 30 33 34 36 41 47 51 52 53 54 53 53 53 52 52 55 54 55 56 53 53 54 51 47 47 48 47 44 43 44 43 41 40 39 40 40 34 22 14 17 20 20 19 18 18 22 24 22 20 18 13 10 8
50 49 49 49 50 50 49 49 48 49 50 49 50 51 47 43 41 41 39 37 37 36 35 36 36 35 34 34 35 35 34 33 29 27 28 30 32 34 35 38 44 49 51 52 53 53 54 54 51 53 56 55 56 56 55 56 57 55 54 52 50 47 44 44 45 44 42 43 44 43 41 35 28 24 21 20 19 18 18 16 17 21 23 23 20 14 9 9
52 51 50 50 50 51 51 50 50 51 51 52 53 51 46 43 43 42 41 40 39 36 35 36 36 35 35 35 36 36 35 34 31 28 28 30 32 33 35 37 41 47 50 50 50 50 52 52 51 53 56 56 56 57 58 58 58 58 56 53 49 49 49 47 47 48 47 47 47 46 43 38 34 29 24 22 21 19 17 16 14 16 20 22 20 14 8 9
54 53 52 52 51 51 52 52 52 52 53 55 54 50 47 46 44 42 43 42 39 37 37 37 37 37 36 36 36 36 36 35 33 31 29 30 31 31 34 37 40 44 48 49 50 50 51 52 52 53 55 56 57 58 60 61 60 60 58 53 52 55 54 50 51 52 51 51 51 48 45 41 37 31 25 24 23 19 17 18 16 15 17 18 17 11 9 11
57 54 53 53 52 52 52 53 54 54 56 56 54 51 49 47 45 43 43 43 41 39 39 38 39 39 39 38 37 37 37 36 35 33 30 30 31 31 33 37 39 42 46 48 50 51 51 52 53 53 54 56 59 61 63 63 63 62 61 59 58 57 55 53 52 52 52 52 52 50 47 42 36 30 27 25 24 21 18 17 17 16 16 15 12 9 10 12
59 56 55 54 53 53 53 54 55 56 57 56 53 52 50 49 47 45 44 44 43 42 41 40 40 40 40 40 38 38 38 37 36 34 32 31 32 32 33 37 39 40 43 46 49 50 50 52 52 53 54 56 60 62 62 62 63 63 63 63 61 59 58 56 53 52 53 53 52 51 50 44 35 30 27 25 24 22 19 16 15 16 15 12 10 10 12 11
62 59 56 55 54 53 54 54 56 57 57 56 54 53 53 52 50 48 46 46 45 44 43 42 42 42 42 41 40 39 39 38 37 36 34 31 31 33 34 36 38 39 41 44 47 49 51 53 52 51 54 57 58 59 59 61 63 64 63 63 61 60 59 58 56 56 55 54 54 53 53 47 38 32 29 27 26 23 20 19 17 15 15 13 12 13 13 11
63 59 58 56 54 53 54 54 55 57 57 56 56 55 54 54 53 50 48 48 47 46 45 45 44 44 43 42 41 40 39 39 38 37 35 32 31 32 34 36 38 41 43 45 47 48 49 51 51 51 54 56 56 56 57 60 64 65 65 63 61 61 61 59 59 57 55 55 56 56 56 52 42 34 30 28 26 25 23 22 19 17 17 17 16 17 17 15
62 59 58 57 54 53 54 54 55 56 56 56 57 57 56 55 54 52 51 49 49 47 47 47 45 45 44 42 41 40 40 40 39 37 35 33 32 33 35 36 38 41 43 44 46 46 47 50 52 52 53 54 53 53 54 57 61 66 68 66 64 64 63 61 60 57 56 56 56 56 57 55 46 37 32 29 26 26 26 24 21 19 18 19 21 21 20 19
62 59 57 56 54 52 53 54 55 56 56 57 58 58 57 56 56 54 51 50 49 48 48 47 46 45 44 43 42 42 41 41 40 38 36 35 34 34 35 37 38 40 41 43 44 44 46 50 52 52 53 54 53 54 55 57 60 64 67 67 66 66 65 64 63 60 60 60 58 58 59 56 47 38 34 32 30 29 29 28 26 24 22 23 24 22 20 21
61 59 57 55 53 52 52 53 54 56 57 58 58 58 58 57 56 54 51 49 48 48 48 48 47 46 45 44 43 43 43 42 41 39 38 37 36 36 37 38 39 39 40 42 43 44 45 48 49 51 53 56 58 58 59 59 59 61 63 65 67 67 67 67 66 65 66 65 62 61 60 55 46 39 36 35 34 32 29 26 23 22 22 25 24 21 21 23
59 57 55 55 53 51 51 52 53 55 56 57 58 59 58 57 56 54 52 50 49 49 49 49 48 47 45 44 44 45 44 43 41 40 39 39 39 39 40 40 40 40 40 42 43 44 45 47 48 50 53 55 57 58 56 54 54 57 58 61 64 67 68 68 67 68 68 66 65 62 57 52 46 40 38 37 36 34 29 23 18 16 20 23 22 22 24 24
57 54 52 52 53 51 50 51 52 54 56 57 58 59 58 57 56 54 52 50 49 49 50 50 49 47 46 45 45 45 44 44 42 40 40 41 41 42 42 42 41 41 41 42 43 44 45 46 47 48 50 51 52 53 51 48 48 50 52 54 57 61 64 65 67 67 65 66 66 59 53 52 48 41 38 38 37 37 34 26 20 18 20 22 21 22 23 23
54 52 50 50 51 52 51 50 51 53 55 56 57 58 57 56 55 54 53 51 50 50 51 50 49 47 46 45 45 46 45 45 44 42 42 43 44 44 43 43 42 42 43 43 43 43 43 44 45 46 48 48 47 48 48 47 45 44 46 49 51 55 59 62 64 64 64 67 64 56 51 52 47 41 39 37 36 36 34 30 25 23 23 23 22 22 22 22
52 51 50 49 49 50 51 51 51 53 55 56 57 57 56 55 54 54 53 52 50 50 51 50 49 48 47 47 48 48 47 47 46 44 44 45 45 45 44 43 42 43 44 44 44 43 42 42 43 44 45 45 44 43 44 45 45 43 44 45 46 50 55 57 59 60 62 64 61 56 54 51 46 43 41 38 37 36 34 32 28 26 26 26 25 24 23 22
51 49 49 48 48 49 50 51 52 53 54 56 56 56 55 55 54 53 52 51 50 50 50 50 50 49 49 49 49 49 48 47 46 44 44 46 47 46 45 43 42 42 42 44 45 44 42 42 42 43 44 44 42 40 40 41 42 43 45 45 45 47 51 54 55 57 60 61 58 57 57 53 48 45 42 40 38 36 34 33 29 26 26 26 25 24 23 22
49 48 48 47 48 49 50 50 51 53 54 55 56 55 54 54 54 53 52 51 50 50 50 51 50 50 50 50 49 49 48 48 47 46 46 47 48 49 47 44 44 44 43 44 47 47 44 43 42 42 43 43 40 38 39 39 39 42 45 47 46 48 50 53 54 56 58 58 57 58 58 55 49 45 42 41 39 36 34 32 27 26 26 27 26 25 23 22
47 47 47 46 47 48 49 50 51 52 53 54 55 55 53 53 53 53 52 51 50 50 50 51 51 51 50 50 50 50 50 49 48 47 48 48 48 50 49 47 45 46 46 47 48 49 48 46 43 42 44 43 40 39 40 39 40 45 49 50 49 49 51 53 54 56 57 57 58 58 57 53 49 45 42 41 39 37 34 29 26 25 26 27 28 27 25 24
Wind_Direction
295 294 291 288 285 282 279 277 275 275 275 274 273 272 270 268 266 264 264 265 264 259 254 249 240 231 230 241 249 235 220 207 189 185 192 202 206 210 214 203 195 194 189 185 184 184 182 182 182 178 175 167 159 152 136 121 121 117 107 98 93 91 89 84 76 63 48 44 54 53 56 54 40 64 80 83 86 91 91 90 95 97 93 88 88 96 98 98
294 294 294 294 292 289 285 281 278 275 273 272 272 271 271 269 267 265 263 262 262 261 255 251 245 236 229 228 238 239 224 211 205 205 209 215 211 209 209 199 194 191 188 185 186 185 182 185 190 186 179 170 168 159 142 130 121 114 109 103 95 91 88 85 76 64 51 47 55 52 51 51 37 50 74 83 84 91 93 90 91 95 93 88 87 92 93 94
290 291 292 292 293 293 292 289 285 281 277 273 271 270 269 269 268 267 264 261 260 260 257 253 247 240 232 225 227 235 229 219 222 223 213 203 207 212 210 198 195 192 188 187 189 189 186 190 197 195 184 174 172 160 145 135 118 109 104 96 89 86 86 88 78 68 55 47 56 54 52 45 30 44 68 82 82 87 92 91 88 89 92 89 86 90 92 95
288 288 288 289 290 290 291 292 291 288 284 279 275 272 269 268 268 267 266 263 260 258 257 255 249 243 235 228 223 227 232 229 232 232 209 199 208 213 209 199 199 195 190 190 191 192 190 194 199 201 193 180 174 165 152 141 122 112 102 89 84 78 82 90 82 76 60 45 56 57 59 50 32 48 70 82 83 84 90 93 89 84 87 89 88 89 92 94
290 288 287 287 287 287 288 288 289 290 289 286 282 277 274 270 268 266 266 264 262 258 256 255 251 246 238 231 224 221 229 232 232 233 214 209 213 213 208 200 201 199 194 194 194 193 193 196 200 202 197 185 178 173 160 147 132 117 104 92 83 75 76 88 81 84 69 48 55 56 64 68 54 64 75 83 86 89 92 96 96 89 86 89 91 92 92 92
293 291 289 288 287 286 286 286 286 286 287 287 287 285 282 276 271 268 265 264 263 260 256 254 252 248 241 233 226 222 225 230 233 234 220 213 216 217 210 203 203 202 199 198 195 193 195 198 202 202 195 186 182 182 169 154 143 126 111 100 85 73 72 83 83 91 83 60 57 56 64 77 75 75 80 83 84 89 93 97 100 98 92 90 92 93 93 91
297 294 292 290 289 287 286 286 285 285 284 285 286 287 287 284 279 273 269 265 262 260 257 253 251 248 244 235 229 224 222 228 231 233 227 217 218 220 214 209 207 203 202 201 195 194 198 201 204 202 195 189 189 189 176 160 149 136 124 110 91 77 72 84 105 117 96 70 61 62 69 77 80 79 81 82 80 83 88 94 102 105 100 95 95 97 97 94
305 301 297 294 292 290 289 287 286 285 284 283 284 285 286 285 284 281 276 270 264 260 256 253 250 247 244 238 232 224 223 228 228 231 233 222 220 223 218 214 213 206 202 202 197 197 201 204 205 203 198 194 196 194 182 168 159 148 135 122 103 89 83 93 125 133 106 80 67 73 80 82 83 82 80 80 80 82 82 88 101 107 107 104 102 102 102 100
309 306 303 301 298 295 293 291 288 287 285 284 283 284 285 284 284 284 283 278 270 263 257 252 249 247 243 239 233 226 227 229 224 230 235 225 223 225 220 218 217 210 203 202 201 202 205 205 204 202 199 198 200 197 187 177 171 162 149 139 122 113 109 112 136 136 118 101 83 88 92 88 87 84 80 76 77 81 83 85 96 107 109 110 112 110 109 107
310 308 306 304 302 300 298 296 293 290 288 286 285 285 284 284 283 282 282 281 278 270 261 253 247 245 242 239 233 227 230 228 222 227 230 225 223 223 220 217 218 214 205 203 205 208 208 204 203 203 202 202 203 199 192 186 180 172 166 158 144 133 130 136 147 138 127 121 104 100 100 94 89 83 79 74 70 73 79 83 89 100 108 114 118 122 121 118
310 308 306 305 303 302 300 299 297 295 292 290 289 287 284 283 283 282 280 279 279 276 270 259 250 243 240 238 232 229 229 226 222 224 225 224 221 219 218 215 217 217 209 205 206 209 208 205 204 204 205 206 207 204 197 193 191 182 174 169 160 147 142 153 153 138 130 133 124 109 105 98 89 82 78 74 69 70 73 78 81 85 100 113 122 129 132 130
306 307 306 305 304 302 300 299 298 296 294 293 292 291 287 284 282 281 280 278 277 276 275 269 258 247 240 235 232 232 229 224 222 222 222 222 220 217 214 213 214 216 213 208 207 209 209 208 207 207 208 208 210 211 202 192 195 192 180 178 173 159 153 158 147 135 133 141 140 121 109 100 91 85 80 77 73 73 73 73 76 76 83 102 121 133 139 140
302 302 303 304 303 302 301 300 298 296 294 294 293 293 290 287 283 281 279 278 276 275 274 273 267 255 242 235 234 235 229 222 222 223 222 221 220 217 212 212 214 215 216 214 213 212 211 210 209 210 210 210 213 215 203 190 195 197 190 190 182 164 157 153 139 134 139 145 145 129 115 104 96 91 87 85 80 76 76 71 72 73 75 89 110 128 139 147
297 298 298 299 300 300 300 300 299 297 295 294 294 293 291 289 286 283 280 277 275 275 273 272 270 264 249 240 237 234 229 224 224 225 223 221 220 219 214 212 214 216 216 218 220 219 217 215 213 213 213 214 218 218 207 194 198 200 197 198 186 166 153 147 138 135 138 140 139 129 118 110 101 94 92 94 88 79 77 73 74 75 76 83 96 114 131 144
293 294 294 294 295 296 297 298 298 298 297 296 295 293 291 289 287 286 283 279 276 273 273 272 270 268 258 249 243 234 229 226 225 226 224 222 221 221 219 215 214 216 217 218 221 221 221 220 217 215 215 219 224 221 212 201 202 206 200 195 187 170 153 143 138 138 138 135 131 123 116 112 104 98 94 94 92 86 81 78 81 84 83 84 88 98 114 134
292 291 291 291 291 292 293 294 295 296 296 297 296 295 293 290 288 286 285 282 279 274 272 272 270 268 262 257 250 235 229 227 225 224 224 222 221 221 223 221 217 216 217 217 218 219 220 221 218 217 218 223 228 224 215 206 206 207 193 182 185 174 156 142 137 138 140 135 127 118 112 111 106 102 99 96 95 96 94 88 91 96 95 92 90 92 100 118
294 290 288 288 288 288 289 290 291 292 293 295 295 295 294 292 290 287 286 284 281 277 273 270 269 268 263 261 256 238 228 229 226 223 224 223 220 219 223 224 223 220 219 219 218 217 218 220 219 220 221 225 231 228 215 204 204 204 186 177 182 172 154 142 137 137 138 136 129 118 110 108 105 104 106 108 108 106 106 112 128 119 109 103 98 96 97 105
296 292 288 286 285 285 286 286 287 288 290 291 292 293 293 293 291 289 287 285 283 280 276 271 267 266 264 261 258 245 231 229 228 224 223 223 220 219 221 224 226 226 224 222 222 219 217 218 219 220 221 225 230 224 205 196 199 200 185 181 187 176 161 151 144 140 139 139 133 125 119 111 105 106 113 119 121 122 125 134 158 158 130 119 110 104 102 103
294 293 290 286 284 283 283 283 284 284 286 287 288 290 291 291 290 289 288 286 285 281 277 273 267 265 264 261 258 251 237 230 229 225 223 223 221 219 220 222 225 228 227 226 226 224 221 219 220 220 221 224 226 211 193 196 199 194 183 181 183 177 169 160 150 145 143 142 136 132 130 123 116 116 120 126 131 142 154 156 168 181 162 140 128 119 115 111
292 291 290 287 285 282 281 281 281 281 282 284 285 285 286 288 288 288 288 287 285 283 280 275 271 267 263 260 258 255 246 235 230 227 224 223 222 220 220 220 223 226 228 229 230 228 225 224 224 224 223 225 227 220 206 201 197 190 183 176 171 172 171 162 154 149 146 144 140 138 136 133 135 135 133 133 134 149 172 178 177 189 193 169 154 144 135 128
289 288 288 286 285 282 281 280 279 279 279 280 282 282 283 284 284 285 287 287 285 282 280 277 274 272 265 259 258 256 250 241 235 229 227 226 223 220 220 220 221 224 227 229 229 228 228 230 229 224 222 223 226 228 216 199 195 193 182 173 170 173 171 163 158 155 152 151 149 147 144 142 145 148 153 156 144 152 177 196 198 199 209 208 195 182 166 150
287 286 285 284 283 282 281 279 278 278 277 278 278 279 281 281 281 282 283 285 285 282 280 276 273 271 267 262 258 256 252 246 239 232 227 227 225 221 220 220 220 222 224 227 229 230 231 234 230 222 219 219 221 225 219 199 193 194 183 176 175 174 172 169 165 161 160 159 159 160 154 150 150 148 153 170 170 166 181 200 211 211 212 221 226 221 211 189
285 284 283 282 281 281 279 278 277 276 276 276 277 277 278 279 279 280 280 281 283 283 282 280 277 272 269 266 261 257 254 247 241 234 226 226 227 224 221 219 219 220 222 225 229 231 235 236 227 220 218 218 219 222 219 203 192 193 188 181 179 178 178 174 169 167 166 166 169 174 169 159 154 147 146 171 181 181 193 203 212 215 213 215 227 241 247 248
284 282 281 280 279 278 278 278 277 275 275 276 275 275 276 277 277 277 278 278 278 280 281 282 280 278 273 269 265 260 254 248 244 239 229 224 227 226 222 219 218 219 220 224 227 229 233 234 225 220 220 219 220 222 219 205 193 194 193 187 184 184 181 175 174 175 173 174 176 184 183 168 159 159 164 178 181 185 205 208 212 215 215 219 227 236 244 253
283 281 279 278 277 277 276 276 275 275 275 274 274 274 274 275 276 275 275 275 272 274 278 279 279 279 278 273 269 264 258 252 248 243 233 223 224 226 224 220 219 219 219 221 224 226 227 228 224 221 221 219 220 223 221 210 198 196 197 193 188 186 183 180 182 182 182 182 180 191 193 176 171 177 179 183 179 183 204 207 213 216 216 222 225 228 234 245
282 280 278 276 276 275 275 274 274 273 273 273 273 274 274 273 274 274 274 273 270 270 274 276 276 277 278 276 272 269 263 254 248 245 238 225 222 224 223 221 219 219 219 220 222 223 223 225 223 221 221 221 221 224 223 215 206 199 196 197 193 189 187 187 188 189 192 189 187 200 198 185 186 185 181 190 191 191 202 206 212 214 212 218 222 226 233 241
282 280 278 275 274 273 273 273 272 272 271 272 272 272 273 273 273 273 272 272 271 270 271 272 273 273 274 275 274 271 265 256 249 247 243 230 223 223 223 222 219 219 219 220 221 220 219 222 224 221 221 222 222 224 224 219 211 200 194 199 197 194 195 195 195 199 202 199 200 206 202 197 197 191 190 201 203 199 203 208 207 204 204 211 216 222 234 244
281 279 277 275 273 272 272 272 271 270 270 270 270 271 271 272 272 272 271 271 272 272 269 269 271 271 270 272 273 271 267 259 250 247 244 235 224 222 223 222 219 219 220 221 222 220 217 220 225 223 222 225 224 224 225 224 216 202 196 201 201 199 201 201 203 208 212 212 211 208 208 210 203 196 203 209 208 204 201 201 198 197 204 208 214 219 232 247
279 278 276 275 273 271 270 270 270 269 269 268 268 269 270 270 270 270 269 269 270 270 269 268 269 270 269 269 269 270 268 261 251 247 245 241 231 223 223 222 219 219 220 220 220 219 217 218 223 222 221 225 225 222 224 226 220 209 203 205 205 206 207 207 209 213 217 219 214 208 213 221 209 197 206 212 211 205 187 182 188 201 216 217 220 223 230 243
277 276 274 274 273 271 270 269 269 269 268 267 266 267 268 268 268 268 267 266 268 269 267 265 265 267 268 266 266 267 267 262 253 248 245 244 237 226 222 221 219 218 220 219 217 216 215 216 220 221 220 222 221 220 222 224 222 215 211 210 210 212 213 214 215 217 222 222 215 210 216 225 219 205 209 216 210 195 182 181 188 199 212 220 229 233 233 238
275 274 272 271 271 270 270 268 268 268 267 266 265 265 265 265 265 264 264 266 268 267 265 263 263 264 265 265 264 264 265 262 254 249 246 244 241 231 223 221 219 218 218 219 216 214 214 214 218 221 220 218 217 216 219 222 221 217 214 212 214 217 217 219 220 222 227 225 217 217 221 228 229 215 212 214 202 197 198 196 195 193 194 208 221 224 224 232
273 272 271 269 268 268 268 268 267 266 266 265 264 263 263 263 261 261 264 267 268 266 264 262 261 260 262 263 262 262 262 261 255 249 247 245 243 238 229 224 222 220 220 220 217 214 212 213 216 219 219 217 216 214 216 219 221 219 216 212 214 220 221 223 224 225 230 229 224 227 230 235 237 224 211 212 204 206 213 212 206 194 190 199 206 206 211 224
272 271 269 268 266 266 266 266 266 265 265 264 264 262 261 260 258 259 264 268 268 266 262 259 258 258 259 260 261 261 261 260 256 249 246 244 242 239 232 227 224 222 222 221 220 217 214 212 214 217 219 218 216 215 215 218 219 219 218 214 214 219 221 223 226 227 232 233 231 234 237 239 241 229 210 211 209 215 223 222 219 210 200 199 202 206 210 215
270 269 267 266 265 264 263 264 264 265 264 263 262 261 260 258 258 260 264 267 266 263 259 257 257 256 257 258 260 261 261 260 256 249 246 244 242 239 234 230 226 224 222 220 219 218 216 214 213 215 218 218 218 217 218 219 221 223 223 219 218 221 223 225 228 230 233 235 235 237 239 239 235 206 195 206 208 214 223 225 224 223 215 210 214 215 212 216
269 267 265 264 263 262 261 261 262 263 263 262 261 260 258 259 260 261 263 264 260 257 256 256 255 255 256 257 258 259 260 259 255 249 246 245 243 240 237 233 229 226 224 221 219 218 217 215 213 216 220 220 219 218 217 218 220 224 226 225 224 224 226 230 233 234 236 238 238 239 240 238 229 204 197 203 205 211 221 225 224 227 229 233 241 239 225 228
268 266 264 262 261 260 259 259 259 260 261 261 260 258 259 261 261 260 260 259 257 254 254 254 254 254 254 254 256 256 257 258 255 249 246 244 241 239 237 234 230 228 226 224 222 220 219 216 213 216 221 221 221 220 218 217 219 221 224 225 226 226 227 231 235 236 236 237 238 239 240 241 238 227 211 206 210 215 225 232 230 234 239 245 253 254 238 240
267 265 264 261 259 258 257 257 257 257 258 258 258 257 259 260 259 258 258 257 256 254 252 252 253 252 251 252 253 255 255 256 254 248 244 244 242 238 237 235 232 229 227 225 224 222 221 219 215 216 220 221 221 221 220 219 220 222 223 225 226 226 227 229 232 234 235 236 239 240 240 241 242 235 220 218 225 226 233 242 245 250 252 250 251 254 253 252
266 265 263 261 259 257 256 255 255 255 256 256 256 256 257 257 257 258 258 256 255 253 250 250 250 249 248 248 249 251 252 254 254 249 244 245 245 240 236 234 233 230 227 225 224 222 221 220 217 215 219 221 222 222 221 220 220 222 224 226 226 227 227 227 229 232 233 236 239 241 241 240 238 234 227 228 232 231 237 244 248 262 263 247 239 244 255 255
265 264 262 261 259 256 254 253 253 253 253 254 255 255 255 256 257 257 255 254 253 251 249 248 247 246 246 245 245 247 249 251 252 250 246 245 246 242 234 232 232 230 227 226 225 223 221 221 218 216 218 221 222 222 222 221 220 220 222 224 225 227 229 229 231 234 235 237 240 242 243 242 237 233 230 232 233 232 236 240 248 262 259 237 225 230 243 248
263 263 261 260 258 256 253 252 251 251 252 253 253 254 253 253 254 253 252 251 250 249 248 246 244 244 243 242 242 243 246 248 249 250 248 244 244 241 234 231 232 230 227 226 225 224 223 222 220 217 217 220 221 222 222 223 222 221 221 222 223 224 226 228 231 234 236 238 241 243 246 246 242 237 234 234 237 237 240 244 252 261 257 243 237 239 243 244
263 262 261 259 257 255 253 251 250 249 250 251 251 251 251 250 250 250 250 249 248 248 246 244 242 241 241 240 239 239 241 245 247 249 248 245 241 238 233 231 230 229 228 227 227 225 225 224 222 219 218 219 221 222 223 225 226 225 224 224 224 223 225 227 230 232 234 237 240 243 246 249 246 239 234 235 239 242 247 252 253 255 256 255 252 248 252 253
263 262 260 259 256 254 252 250 249 248 248 248 249 249 248 248 248 248 248 247 247 246 245 244 242 241 239 238 236 236 238 242 245 247 248 245 240 235 233 231 229 229 230 230 230 227 226 226 224 221 220 220 221 223 224 226 226 227 227 227 226 226 227 229 232 233 234 236 239 241 245 248 247 242 238 236 239 245 252 255 251 247 252 259 258 251 254 257
263 262 261 258 255 252 250 248 247 246 246 245 246 246 246 246 246 246 246 246 245 245 244 244 242 241 239 236 234 234 236 239 243 245 247 245 240 233 231 231 230 231 232 233 233 230 227 227 227 224 221 220 221 223 224 225 225 226 227 227 226 226 228 232 235 237 238 239 240 241 244 246 247 246 246 244 244 248 251 252 249 247 251 261 265 258 254 255
263 262 261 258 255 252 249 247 246 245 244 243 243 243 244 244 244 244 244 244 243 243 243 243 241 240 237 234 232 232 234 237 239 242 243 243 239 233 229 230 231 232 232 232 232 231 230 230 229 226 223 219 219 221 223 224 224 225 226 228 228 228 228 230 233 236 238 239 241 242 244 246 247 247 248 251 253 254 255 256 257 257 255 260 266 261 249 247
263 262 260 258 255 251 247 246 244 243 242 241 241 241 243 243 243 243 243 242 241 240 240 240 239 238 235 232 230 230 232 235 235 236 238 239 236 233 230 230 231 231 232 231 231 231 232 233 231 228 226 223 221 221 222 224 225 225 225 226 228 229 229 230 231 233 235 238 239 240 242 244 246 246 246 248 252 255 259 264 267 263 255 257 261 253 241 241
259 259 257 256 253 249 246 244 242 241 240 239 239 240 241 241 242 242 242 240 239 238 238 238 237 236 233 231 229 228 230 233 233 233 236 236 232 230 230 230 230 231 233 233 232 231 232 233 233 232 232 230 226 224 223 226 228 229 228 226 227 229 230 231 231 232 235 238 239 240 241 243 244 244 244 245 246 247 252 260 265 260 252 256 256 244 237 239
254 252 250 250 249 247 243 241 240 239 238 238 238 238 239 240 240 240 240 238 236 236 236 235 234 234 232 229 228 228 228 230 231 231 233 233 230 228 229 230 230 231 234 234 234 234 234 235 235 235 235 233 230 225 223 224 229 232 232 231 229 229 230 231 231 231 233 237 240 240 240 241 242 241 242 244 246 246 247 251 255 252 248 250 249 242 239 240
252 248 244 242 243 243 240 237 236 236 236 236 236 236 237 238 238 238 237 236 234 233 234 234 232 232 230 226 225 226 225 226 227 227 227 228 227 227 228 229 229 231 233 235 236 236 235 235 236 236 236 235 231 226 222 221 224 228 232 233 232 230 231 232 231 231 232 235 239 241 240 241 242 242 242 244 247 250 250 247 246 245 243 242 245 246 243 242
251 247 243 238 237 238 237 234 232 232 233 233 233 234 235 236 236 236 235 234 233 232 232 232 230 228 227 224 223 223 223 223 224 224 223 223 223 224 227 228 229 231 234 237 238 236 235 235 235 235 236 235 231 225 222 220 220 221 225 229 231 231 231 232 233 232 233 236 240 242 242 241 241 241 242 244 247 252 251 243 239 241 244 245 246 246 243 243
251 247 244 239 235 235 236 234 231 228 230 231 231 231 232 233 233 233 233 232 231 229 229 229 228 226 225 223 222 222 222 223 223 222 221 221 220 221 223 225 227 231 234 237 240 238 234 234 235 235 235 234 230 223 219 218 217 217 219 223 227 229 230 231 232 232 233 235 238 240 241 240 238 238 240 241 244 248 246 240 236 237 245 248 245 242 242 245
251 249 246 241 237 235 236 236 233 229 228 229 229 229 229 230 230 230 230 229 228 226 226 226 226 225 224 222 222 221 220 221 222 221 220 220 219 218 218 220 223 228 230 235 239 239 236 234 235 235 235 232 227 221 218 216 215 215 215 217 221 225 227 228 229 230 231 233 236 239 239 238 236 236 238 239 240 241 241 238 232 230 237 243 242 242 244 246
252 251 249 245 240 238 238 237 236 233 230 229 229 227 227 227 227 227 227 226 225 224 224 224 223 223 222 221 221 221 219 219 220 220 220 220 219 218 218 217 220 224 228 232 235 236 235 235 235 234 233 230 225 220 219 218 217 217 216 216 218 221 224 226 227 227 229 231 233 236 237 237 237 236 238 239 238 238 237 231 225 226 231 236 239 243 247 249